CST,Max TemperatureF,Mean TemperatureF,Min TemperatureF,Max Dew PointF,MeanDew PointF,Min DewpointF,Max Humidity, Mean Humidity, Min Humidity, Max Sea Level PressureIn, Mean Sea Level PressureIn, Min Sea Level PressureIn, Max VisibilityMiles, Mean VisibilityMiles, Min VisibilityMiles, Max Wind SpeedMPH, Mean Wind SpeedMPH, Max Gust SpeedMPH,PrecipitationIn, CloudCover, Events, WindDirDegrees
2014-2-1,19,10,1,18,8,-4,93,81,53,30.24,30.02,29.89,10,8,2,22,11,28,0.00,5,Snow,291
2014-2-2,21,8,-5,9,0,-9,85,73,54,30.30,30.23,30.16,10,10,10,16,10,,0.00,1,,241
2014-2-3,26,16,5,18,10,0,93,78,64,30.27,30.18,30.14,10,9,3,16,11,,0.00,3,Snow,169
2014-2-4,15,8,0,12,3,-6,93,79,66,30.37,30.31,30.27,10,7,2,26,17,36,0.00,7,Rain-Snow,31
2014-2-5,5,-2,-9,-6,-8,-17,78,69,61,30.55,30.49,30.38,10,7,2,26,20,33,0.00,5,Rain-Snow,333
2014-2-6,5,-4,-13,-4,-12,-20,78,70,61,30.52,30.42,30.30,10,10,5,21,13,25,0.00,1,Snow,273
2014-2-7,14,2,-9,3,-6,-17,85,71,53,30.29,30.19,30.09,10,10,10,21,10,28,0.00,1,,220
2014-2-8,15,10,6,12,7,3,86,82,73,30.16,30.05,29.99,10,8,1,16,11,,0.00,5,Snow,255
2014-2-9,8,0,-7,3,-7,-13,92,74,61,30.39,30.29,30.17,10,10,9,15,10,16,0.00,1,Snow,325
2014-2-10,3,-6,-14,-8,-12,-22,78,71,61,30.46,30.42,30.36,10,10,9,16,9,,0.00,1,,317
2014-2-11,15,4,-7,9,0,-13,85,73,62,30.42,30.22,30.01,10,10,10,24,13,30,0.00,5,,178
2014-2-12,23,19,15,21,15,7,100,87,68,30.09,29.98,29.75,10,6,1,25,14,32,0.00,7,Snow,222
2014-2-13,39,26,14,30,19,5,100,77,59,29.76,29.68,29.59,10,9,5,33,18,40,0.00,3,,284
2014-2-14,12,6,1,9,3,-4,85,76,67,30.05,29.92,29.68,10,8,2,22,13,29,0.00,3,Snow,336
2014-2-15,42,22,1,34,18,-4,93,83,66,30.04,29.87,29.69,10,9,1,28,14,40,0.00,5,Snow,224
2014-2-16,24,17,10,19,15,7,93,85,74,30.16,30.04,29.84,10,9,6,23,13,30,0.00,5,Snow,113
2014-2-17,42,32,21,32,27,19,100,83,57,29.89,29.80,29.75,10,8,0,31,17,38,0.02,3,Snow,237
2014-2-18,55,42,30,36,28,23,100,67,41,29.87,29.68,29.57,10,10,10,23,13,31,0.00,0,,260
2014-2-19,53,38,24,30,27,19,100,73,26,29.89,29.79,29.61,10,10,10,24,12,32,0.00,0,,213
2014-2-20,35,27,19,34,29,16,100,94,80,29.61,29.55,29.41,10,5,0,38,13,48,0.04,7,Rain-Snow,338
2014-2-21,32,23,14,23,14,7,86,73,59,29.86,29.73,29.59,10,10,8,30,20,39,0.00,1,,282
2014-2-22,24,19,14,18,10,7,93,65,46,30.17,30.01,29.87,10,10,2,14,8,18,0.00,3,Snow,326
2014-2-23,24,14,3,10,6,-2,85,69,54,30.33,30.28,30.19,10,10,10,16,10,,0.00,1,,311
2014-2-24,15,10,6,12,6,1,93,77,57,30.35,30.29,30.21,10,7,0,14,7,,0.01,5,Snow,37
2014-2-25,8,2,-5,5,-5,-11,92,74,62,30.42,30.35,30.30,10,10,8,23,13,26,0.00,2,Snow,315
2014-2-26,21,5,-11,12,-2,-18,79,72,62,30.38,30.04,29.77,10,9,2,30,15,37,0.00,0,,269
2014-2-27,6,-2,-11,-2,-15,-22,72,58,46,30.16,30.06,29.92,10,10,10,20,12,29,0.00,0,,61
2014-2-28,24,11,-2,18,6,-11,93,75,63,30.13,29.89,29.76,10,9,2,22,15,28,0.00,6,Snow,182